Terminal Aerodrome Forecast
Issued by NWS Blacksburg, VA

Current Version | Previous Version | Text Only | Print | Product List | Glossary Off
Versions: 1 2 3 4 5 6 7 8 9 10 11 12 13 14 15 16 17 18 19 20 21 22 23 24 25 26 27 28 29 30 31 32 33 34 35 36 37 38 39 40

000
FTUS41 KRNK 260538
TAFBLF
TAF
KBLF 260538Z 2606/2706 19004KT P6SM SCT250
      TEMPO 2608/2611 3SM BR SCT003
     FM261500 27008KT P6SM BKN180=

USA.gov is the U.S. government's official web portal to all federal, state and local government web resources and services.